Notices

What's New in latest Release from April 7th, 2021:

- Updated Glossary, including Speed of Maximum Gust, and Total Hourly Precipitation

- Updated national and regional climate services offices contacts and prices information

- Addition of station inventory lists for 1981-2010, 1971-2000, and 1961-1990 Normals.

If you haven't already, please take our survey and provide feedback about our website: https://eccc.sondage-survey.ca/f/LanguageSelection.aspx?s=442ca660-fcf1-47c0-95a9-59707d6fd709

Hourly Data Report for April 13, 2004

TORONTO CITY
ONTARIO

43°40'00.000" N
79°24'00.000" W
112.50 m
6158355
71508
XTO

Download Data

Hourly Data (April 2004)
Hourly Data Report for April 13, 2004
TIME
LST
Temp Definition
°C
Dew Point Definition
°C
Rel Hum Definition
%
Precip. Amount Definition
mm

Wind Dir Definition
10's deg

Wind Spd Definition
km/h
Visibility Definition
km
Stn Press Definition
kPa
Hmdx Definition


Wind Chill Definition


Weather Definition


00:00 3.5 2.3 92   LegendMM LegendMM LegendMM 100.52     LegendNANA
01:00 2.5 1.6 94   LegendMM LegendMM LegendMM 100.45     LegendNANA
02:00 2.2 1.5 95   LegendMM LegendMM LegendMM 100.33     LegendNANA
03:00 2.7 2.0 95   LegendMM LegendMM LegendMM 100.28     LegendNANA
04:00 2.9 2.2 95   LegendMM LegendMM LegendMM 100.22     LegendNANA
05:00 3.0 2.1 94   LegendMM LegendMM LegendMM 100.16     LegendNANA
06:00 3.2 2.3 94   LegendMM LegendMM LegendMM 100.08     LegendNANA
07:00 3.4 2.5 94   LegendMM LegendMM LegendMM 100.04     LegendNANA
08:00 3.7 3.0 95   LegendMM LegendMM LegendMM 100.11     LegendNANA
09:00 3.8 3.2 96   LegendMM LegendMM LegendMM 100.08     LegendNANA
10:00 4.0 3.6 97   LegendMM LegendMM LegendMM 99.92     LegendNANA
11:00 4.2 3.6 96   LegendMM LegendMM LegendMM 99.90     LegendNANA
12:00 4.3 3.7 96   LegendMM LegendMM LegendMM 99.78     LegendNANA
13:00 4.6 4.0 96   LegendMM LegendMM LegendMM 99.61     LegendNANA
14:00 4.6 3.7 94   LegendMM LegendMM LegendMM 99.74     LegendNANA
15:00 4.3 3.3 93   LegendMM LegendMM LegendMM 99.59     LegendNANA
16:00 4.8 3.8 93   LegendMM LegendMM LegendMM 99.49     LegendNANA
17:00 4.8 3.5 91   LegendMM LegendMM LegendMM 99.53     LegendNANA
18:00 4.4 3.1 91   LegendMM LegendMM LegendMM 99.53     LegendNANA
19:00 4.2 3.0 92   LegendMM LegendMM LegendMM 99.41     LegendNANA
20:00 4.4 2.8 89   LegendMM LegendMM LegendMM 99.44     LegendNANA
21:00 4.5 2.5 87   LegendMM LegendMM LegendMM 99.40     LegendNANA
22:00 4.4 1.6 82   LegendMM LegendMM LegendMM 99.43     LegendNANA
23:00 4.4 1.4 81   LegendMM LegendMM LegendMM 99.45     LegendNANA

Notes on Data Quality.

Legend

  • E = Estimated
  • M = Missing
  • NA = Not Available*
  • [empty] = Indicates an unobserved value
Date modified: